Location: Newark
(34.1333°N, 7.9667°W)
Time: 14:33:44
(UTC+00:00)

Courier 1B Rocket - Visible Passes

Search period start: 22 June 2021 00:00
Search period end: 02 July 2021 00:00
Orbit: 920 x 1202 km, 28.2° (Epoch: 21 June)

Date Brightness Start Highest point End Pass type
(mag) Time Alt. Az. Time Alt. Az. Time Alt. Az.
22 Jun 5.3 21:08:47 10° W 21:15:12 47° S 21:18:45 24° SE visible
22 Jun 6.7 23:02:52 10° WSW 23:05:06 18° WSW 23:05:06 18° WSW visible
23 Jun 5.4 20:07:30 10° WSW 20:14:14 52° S 20:20:30 10° ESE visible
23 Jun 5.7 22:01:23 10° W 22:07:14 33° SSW 22:07:38 33° S visible
24 Jun 5.6 21:00:00 10° W 21:06:21 41° SSW 21:10:11 21° SE visible
24 Jun 6.9 22:54:42 10° WSW 22:56:32 15° SW 22:56:32 15° SW visible
25 Jun 6.1 21:52:51 10° WSW 21:58:17 26° SSW 21:59:05 25° SSW visible
26 Jun 5.9 20:51:17 10° W 20:57:26 34° SSW 21:01:38 17° SE visible
26 Jun 7.1 22:47:15 10° SW 22:47:59 11° SW 22:47:59 11° SW visible
27 Jun 6.5 21:44:38 10° WSW 21:49:16 19° SSW 21:50:34 18° SSW visible
28 Jun 6.3 20:42:42 10° WSW 20:48:27 27° SSW 20:53:10 13° SSE visible
29 Jun 6.9 21:37:03 10° WSW 21:40:12 13° SSW 21:42:08 12° SSW visible
30 Jun 6.8 20:34:24 10° WSW 20:39:23 20° SSW 20:44:10 10° SSE visible
